Preview of NWS' New Version of Forecast
This preview is not operational and should not be used for support decisions.

Regional Weather Roundup (RWR)

Issued by National Weather Service (NWS)

                            
000
ASUS46 KPQR 182210
RWROR 

OREGON REGIONAL WEATHER ROUNDUP
NATIONAL WEATHER SERVICE PORTLAND OR
300 PM PDT THU APR 18 2019

NOTE: "FAIR" INDICATES FEW OR NO CLOUDS BELOW 12,000 FEET WITH
NO SIGNIFICANT WEATHER AND/OR OBSTRUCTIONS TO VISIBILITY.

ORZ001>013-182300-
NORTHWEST OREGON

  
CITY           SKY/WX    TMP DP  RH WIND       PRES   REMARKS
ASTORIA        SUNNY     62  50  64 W9        30.17F                  
TILLAMOOK      MOSUNNY   64  54  68 NW3       30.19F                  
NEWPORT        MOSUNNY   59  52  77 NW9       30.21S                  
PORTLAND       PTSUNNY   72  47  40 E3        30.15F                  
VANCOUVER WA   MOSUNNY   71  48  43 CALM      30.14F                  
SCAPPOOSE      MOSUNNY   72  51  47 SE7       30.14F                  
HILLSBORO      MOSUNNY   72  50  45 VRB6      30.15F                  
AURORA         SUNNY     72  53  51 VRB5      30.16F                  
MCMINNVILLE    SUNNY     70  56  61 SE5       30.14F                  
SALEM          SUNNY     75  50  41 NW5       30.13F                  
CORVALLIS      SUNNY     73  55  53 E3        30.14F                  
EUGENE         MOSUNNY   76  54  46 N3        30.14F                  
$$

ORZ021-028-182300-
SOUTHWEST OREGON

  
CITY           SKY/WX    TMP DP  RH WIND       PRES   REMARKS
NORTH BEND     SUNNY     62  54  74 N9        30.18S                  
BROOKINGS      SUNNY     68  55  63 SW5       30.12F                  
ROSEBURG       SUNNY     81  46  29 N8        30.12F                  
SEXTON SUMMIT  SUNNY     73  51  46 CALM      30.23F                  
GRANTS PASS    FAIR      81  48  32 CALM      30.14F                  
MEDFORD        SUNNY     78  46  32 CALM      30.12F                  
$$

ORZ014>016-041-182300-
COLUMBIA GORGE

  
CITY           SKY/WX    TMP DP  RH WIND       PRES   REMARKS
TROUTDALE      SUNNY     71  49  45 W3        30.15F                  
HOOD RIVER     MOSUNNY   73  46  38 MISG      30.13F                  
THE DALLES     MOSUNNY   73  46  38 W3        30.11F                  
$$

ORZ029>031-041-044-049-050-061>064-502-503-505>511-182300-
EASTERN OREGON

  
CITY           SKY/WX    TMP DP  RH WIND       PRES   REMARKS
MADRAS         SUNNY     73  43  33 E3        30.18F                  
REDMOND        MOSUNNY   79  43  27 VRB6      30.18F                  
BEND           MOSUNNY   77  39  25 VRB6G13   30.17F                  
PRINEVILLE     MOSUNNY   73  41  31 N8        30.19F                  
KLAMATH FALLS  SUNNY     73  37  27 S5        30.24F                  
LAKEVIEW       SUNNY     71  35  26 VRB3      30.28F                  
HERMISTON      SUNNY     78  47  33 W3        30.11F                  
PENDLETON      SUNNY     75  48  38 W3        30.14F                  
JOHN DAY       MOSUNNY   73  42  32 NW7       30.22F                  
MEACHAM        SUNNY     68  39  34 VRB3      30.21F                  
LA GRANDE      SUNNY     71  45  39 S13       30.20F                  
BAKER CITY     MOSUNNY   73  27  18 E10       30.22F                  
BURNS          SUNNY     70  40  33 VRB5      30.27F                  
ROME             N/A     73  38  27 MISG      30.25F                  
ONTARIO        SUNNY     74  43  32 CALM      30.25F                  
$$